GEFSCGP_con_probscp_198.txt.gz
Probability
0 0 0 0 0 0 0 0 0 0 0 0 0 0 0 2 4 5 6 9 14 19 21 22 25 27 23 17 16 16 16 17 18 17 13 9 7 3 1 0 0 0 1 1
0 0 0 0 0 0 0 0 0 0 0 0 0 0 1 2 3 5 8 11 14 19 22 21 21 22 21 17 16 16 14 14 16 15 12 10 8 5 1 0 0 1 1 2
0 0 0 0 0 0 0 0 0 0 1 0 0 0 1 2 3 5 9 13 14 18 21 19 16 18 19 18 16 14 12 12 13 13 13 13 11 7 3 2 2 1 1 2
0 0 0 0 0 0 0 0 0 0 0 0 0 0 1 2 3 5 8 11 13 15 16 15 13 14 16 16 14 13 11 10 11 13 16 17 16 12 8 5 4 3 2 3
0 0 0 0 0 0 0 0 0 0 0 0 0 0 1 2 3 5 7 8 9 10 10 10 10 10 12 13 14 14 12 10 11 15 18 19 17 15 10 7 4 3 3 4
0 0 0 0 0 0 0 0 0 0 0 0 0 0 0 1 1 3 5 6 6 6 6 6 6 7 10 14 16 16 14 12 13 16 17 16 15 13 10 7 4 3 3 3
0 0 0 0 0 0 0 0 0 0 0 0 0 0 0 0 0 1 3 4 4 4 5 6 6 7 11 15 17 16 15 15 15 16 14 11 10 10 9 7 5 2 1 2
0 0 0 0 0 0 0 0 0 0 0 0 0 0 0 1 1 1 1 2 2 3 5 5 6 8 12 15 16 14 14 14 14 13 10 7 6 6 6 5 4 2 1 1
0 0 0 0 0 0 0 0 0 0 0 0 0 0 0 2 2 1 0 0 1 2 3 4 5 8 11 14 14 13 12 11 12 11 8 6 5 5 5 4 3 3 3 2
0 0 0 0 0 0 0 0 0 0 0 0 0 0 0 1 1 2 1 1 1 1 3 3 3 6 10 12 13 12 11 10 10 9 8 7 5 5 6 5 4 3 3 3
0 0 0 0 0 0 0 0 0 0 0 0 0 0 0 0 0 2 3 3 2 2 3 3 2 4 7 10 12 13 12 10 10 8 8 7 6 6 6 6 4 3 3 3
0 0 0 0 0 0 0 0 0 0 0 0 0 0 0 0 1 2 3 3 2 3 3 3 3 4 5 8 11 12 11 10 9 8 7 6 6 6 6 6 5 4 3 3
0 0 0 0 0 0 0 0 0 0 0 0 0 0 0 0 1 1 2 1 1 2 3 3 3 3 4 6 7 8 9 8 8 8 7 5 4 4 5 6 5 3 3 3
0 0 0 0 0 0 0 0 0 0 0 0 0 0 0 0 0 0 0 1 1 3 3 2 2 2 3 4 5 6 6 6 6 6 6 4 3 3 4 4 3 2 1 2
0 0 0 0 0 0 0 0 0 0 0 0 0 0 0 0 0 0 0 0 1 2 2 1 0 1 2 3 3 4 3 3 2 3 4 3 3 3 3 3 2 1 0 1
0 0 0 0 0 0 0 0 0 0 0 0 0 0 0 0 0 0 0 0 1 1 1 0 0 0 1 1 2 2 1 1 1 1 1 2 3 3 3 2 1 0 0 0
0 0 0 0 0 0 0 0 0 0 0 0 0 0 0 0 0 0 0 0 0 0 0 0 0 0 0 0 1 1 1 1 0 0 0 1 3 3 3 1 0 0 0 0
0 0 0 0 0 0 0 0 0 0 0 0 0 0 0 0 0 0 0 0 0 0 0 0 0 0 0 0 0 0 0 0 0 0 0 1 2 3 2 1 0 0 0 0
0 0 0 0 0 0 0 0 0 0 0 0 0 0 0 0 0 0 0 0 0 0 0 0 0 0 1 1 0 0 0 0 0 0 0 1 2 3 1 0 0 0 0 0
0 0 0 0 0 0 0 0 0 0 0 0 0 0 0 0 0 0 0 0 0 0 0 0 0 0 0 1 1 0 0 0 1 1 0 1 2 2 1 0 0 0 0 0
0 0 0 0 0 0 0 0 0 0 0 0 0 0 0 0 0 0 0 0 0 0 0 0 0 0 0 0 0 0 0 0 1 1 0 0 1 1 1 0 0 0 0 0
0 0 0 0 0 0 0 0 0 0 0 0 0 0 0 0 0 0 0 0 0 0 0 0 0 0 0 0 0 0 0 0 0 0 0 0 0 0 0 0 0 0 0 0
0 0 0 0 0 0 0 0 0 0 0 0 0 0 0 0 0 0 0 0 0 0 0 0 0 0 0 0 0 0 0 0 0 0 0 0 0 0 0 0 0 0 0 0
0 0 0 0 0 0 0 0 0 0 0 0 0 0 0 0 0 0 0 0 0 0 0 0 0 0 0 0 0 0 0 0 0 0 0 0 0 0 0 0 0 0 0 0
0 0 0 0 0 0 0 0 0 0 0 0 0 0 0 0 0 0 0 0 0 0 0 0 0 0 0 0 0 0 0 0 0 0 0 0 0 0 0 0 0 0 0 0
0 0 0 0 0 0 0 0 0 0 0 0 0 0 0 0 0 0 0 0 0 0 0 0 0 0 0 0 0 0 0 0 0 0 0 0 0 0 0 0 0 0 0 0

GEFSCGP_con_probscp_204.txt.gz
Probability
0 0 0 0 0 0 0 0 0 0 0 0 0 1 2 3 2 2 3 6 12 18 23 25 27 30 34 39 39 36 34 33 34 34 31 27 22 18 15 14 15 14 12 10
0 0 0 0 0 0 0 0 0 0 0 0 0 1 2 2 2 1 2 6 12 18 23 25 26 28 31 35 36 34 32 32 33 33 31 27 24 21 19 18 17 15 12 10
0 0 0 0 0 0 0 0 0 0 0 0 0 1 2 2 1 1 2 6 12 18 22 23 24 25 27 29 32 32 32 32 31 32 31 29 26 24 22 21 19 15 12 10
0 0 0 0 0 0 0 0 0 0 0 0 0 1 1 1 1 1 3 6 11 18 21 21 21 22 23 24 26 29 30 30 31 31 31 31 29 25 24 23 20 17 13 12
0 0 0 0 0 0 0 0 0 0 0 0 0 0 0 0 1 2 4 7 12 17 20 20 18 18 17 17 19 23 25 26 29 29 29 30 28 26 24 22 20 17 15 14
0 0 0 0 0 0 0 0 0 0 0 0 0 0 0 0 1 2 6 11 16 18 18 18 17 16 14 12 14 18 21 23 25 26 26 26 24 23 21 19 17 15 13 13
0 0 0 0 0 0 0 0 0 0 0 0 0 0 1 2 2 3 8 14 17 17 17 18 18 17 14 11 12 16 19 21 23 24 23 22 20 20 19 16 14 13 12 12
0 0 0 0 0 0 0 0 0 0 0 0 0 1 2 3 3 4 9 13 15 15 15 16 18 18 15 12 13 16 19 21 21 21 20 19 19 18 16 14 12 12 12 11
0 0 0 0 0 0 0 0 1 1 0 0 0 2 4 4 5 6 10 12 13 13 13 13 15 15 13 13 15 18 21 22 21 19 17 17 18 16 13 11 11 11 11 11
0 0 0 0 0 0 0 0 1 1 0 0 0 2 5 6 7 8 11 11 12 13 12 12 12 11 10 11 13 16 19 20 19 17 15 15 14 14 11 10 10 11 10 10
0 0 1 1 0 0 0 0 1 1 0 0 1 3 5 6 7 9 11 10 9 9 9 9 9 8 7 6 9 12 14 15 16 14 13 12 12 11 10 8 9 10 11 11
0 0 1 1 1 1 1 0 0 0 0 0 1 2 3 4 6 8 10 9 6 4 5 6 7 6 4 3 6 8 9 10 13 12 11 11 10 10 8 8 8 10 11 11
0 0 0 1 1 2 2 1 1 0 0 0 0 1 2 3 5 7 9 8 4 2 3 5 5 4 2 2 4 7 7 8 9 10 10 10 10 9 9 8 9 10 10 10
1 0 0 0 1 1 2 2 2 1 1 0 0 0 1 3 4 5 8 7 4 2 2 5 4 2 1 1 3 6 6 7 7 8 8 9 9 10 9 9 9 9 8 8
2 1 0 0 0 0 1 2 2 2 2 1 0 0 0 1 1 3 6 6 4 2 3 4 3 1 0 0 2 5 6 7 7 7 7 8 9 10 9 9 9 8 7 7
2 1 0 0 0 0 0 1 1 2 2 1 0 0 0 0 0 2 3 4 4 3 4 4 2 0 0 1 2 5 5 6 7 7 6 7 8 9 9 9 8 7 6 6
1 0 0 0 0 0 0 0 0 1 1 0 0 0 0 0 0 1 2 3 4 3 4 4 1 0 0 1 3 4 4 4 5 6 6 5 5 6 6 7 6 6 5 5
0 0 0 0 0 0 0 0 0 0 0 0 0 0 0 0 0 1 1 3 4 4 3 2 1 0 0 2 3 3 3 2 3 4 4 4 4 4 4 5 6 6 5 5
0 0 0 0 0 0 0 0 0 0 0 0 0 0 0 0 0 0 1 3 4 4 2 1 1 1 0 1 2 1 1 1 1 1 2 3 3 3 3 4 6 7 8 7
0 0 0 0 0 0 0 0 0 0 1 1 1 1 0 0 1 1 1 3 3 2 0 1 1 1 1 1 2 1 1 1 0 0 1 2 3 3 4 5 7 8 8 8
0 0 0 1 0 0 0 0 0 0 1 2 2 2 1 1 3 3 2 2 2 1 0 0 1 1 1 2 3 3 3 2 1 0 0 1 2 3 4 5 6 7 7 7
0 0 1 1 0 0 0 0 0 0 1 1 1 2 2 2 3 3 2 2 3 1 0 0 0 0 1 2 3 3 3 2 1 0 0 1 1 2 3 4 6 6 6 6
0 1 2 2 1 0 0 0 0 0 0 0 1 2 2 2 1 1 1 2 3 1 0 0 0 0 0 1 2 1 1 1 0 0 0 1 1 1 3 4 5 5 5 5
1 1 2 2 1 0 0 0 0 0 0 1 2 2 1 1 0 1 2 2 2 1 0 0 0 0 0 0 0 0 0 0 0 0 0 0 0 1 2 3 3 3 3 4
0 0 0 0 0 0 0 0 0 0 0 1 2 3 1 1 1 2 2 1 1 0 0 0 0 0 0 0 0 0 0 0 0 0 0 0 0 0 1 1 1 1 2 2
0 0 0 0 0 0 0 0 0 0 0 1 2 3 2 2 2 1 1 0 0 0 0 0 0 0 0 0 0 0 0 0 0 0 0 0 0 0 0 0 0 0 1 1

GEFSCGP_con_probscp_210.txt.gz
Probability
0 0 0 0 0 0 0 0 0 0 0 0 0 3 8 10 10 10 12 16 21 29 34 35 36 41 48 53 55 56 51 44 39 37 37 38 38 37 38 39 40 40 37 35
0 0 0 0 0 0 0 0 0 0 0 0 1 3 7 10 10 10 13 16 19 26 32 36 37 42 48 52 53 52 46 41 38 37 37 38 38 38 38 39 39 39 38 37
0 0 0 0 0 0 0 0 0 0 0 0 1 3 8 10 10 10 14 17 19 23 30 35 37 40 44 48 48 44 39 36 35 35 36 37 38 38 38 38 38 37 36 36
0 0 0 0 0 0 0 0 0 0 0 0 0 2 6 9 11 12 15 19 21 24 31 36 37 36 37 39 39 37 35 33 32 33 34 35 36 36 36 35 34 33 31 30
0 0 0 0 0 0 0 0 1 0 0 0 0 1 5 9 14 17 20 22 24 25 31 36 36 34 31 29 29 30 33 33 31 30 32 33 33 33 33 31 30 29 27 26
0 0 0 0 0 0 0 0 0 0 0 0 0 1 5 11 16 20 22 25 27 27 30 33 32 29 25 20 18 21 27 30 29 28 30 32 31 31 29 27 27 27 26 24
0 0 0 0 0 0 0 0 0 0 0 0 0 1 6 12 16 17 19 24 28 27 26 25 24 22 20 15 12 15 20 24 23 23 26 30 29 28 26 25 25 25 23 22
0 0 0 0 0 0 0 0 0 0 1 1 0 2 7 11 11 11 13 19 24 23 19 17 17 18 17 15 13 13 16 18 17 17 21 26 27 24 21 20 20 21 20 18
0 0 0 0 0 0 0 0 0 0 1 1 1 2 5 7 5 4 6 12 17 16 13 13 14 16 16 15 13 13 14 14 13 13 15 19 21 20 16 15 16 17 16 16
0 0 0 0 0 0 0 0 0 0 1 1 0 1 3 3 3 2 4 8 11 11 10 12 14 14 14 13 12 13 12 11 10 10 11 12 14 15 14 14 15 15 14 13
1 0 0 0 0 0 0 0 0 0 0 0 0 1 2 3 2 2 3 6 8 9 8 9 11 12 10 10 10 11 10 9 8 7 8 9 11 13 13 13 14 14 13 11
1 0 0 0 0 0 0 0 0 0 0 0 0 1 2 2 1 1 3 6 8 7 5 6 7 8 8 7 8 8 8 7 7 7 8 10 10 11 13 13 12 12 12 11
1 1 0 0 0 0 0 0 0 0 0 0 0 1 1 1 1 2 3 6 7 5 4 4 5 7 7 7 6 6 6 6 6 6 7 9 9 10 12 13 11 10 10 10
2 2 1 0 0 0 0 0 0 0 0 1 1 2 2 2 2 2 4 6 6 4 5 6 6 7 8 6 6 6 6 6 5 5 5 6 7 8 9 10 10 9 9 9
3 3 2 0 0 0 1 0 0 0 1 2 2 2 2 2 1 1 4 6 5 4 5 5 6 6 5 4 4 5 5 5 4 4 3 4 4 5 6 8 9 8 8 9
2 1 1 0 0 0 0 0 0 0 1 1 1 1 1 1 1 1 3 5 4 3 3 3 3 4 3 2 2 3 4 4 4 4 4 3 3 4 6 7 9 9 9 10
1 0 0 0 0 0 0 0 0 0 0 0 0 0 1 2 2 3 3 4 3 1 1 1 2 3 3 2 1 2 4 5 5 4 3 3 3 4 6 7 9 10 11 11
2 1 0 0 0 0 0 0 0 0 1 1 1 1 2 3 3 2 3 3 3 3 2 2 3 3 3 2 1 1 3 4 4 4 3 3 3 4 6 7 8 10 10 11
2 1 0 0 0 0 0 0 0 0 2 2 2 2 2 2 2 2 2 4 5 6 6 4 3 2 1 1 0 1 2 2 3 4 3 2 3 4 5 5 6 8 9 10
1 0 0 0 0 0 0 0 0 0 1 1 1 1 2 3 4 5 5 5 6 7 5 4 2 1 1 1 1 0 0 1 2 2 2 1 2 3 3 4 4 6 8 8
1 0 0 0 0 1 1 1 0 1 1 1 1 1 2 6 9 9 8 6 5 5 3 2 1 0 0 1 1 1 0 1 1 1 1 1 2 2 3 4 5 7 7 6
2 1 0 0 0 1 2 1 1 1 2 2 2 1 3 8 11 10 7 5 4 3 1 0 0 0 0 1 1 1 0 1 0 0 0 1 2 3 4 5 7 9 7 6
3 2 0 0 0 0 1 1 0 1 1 1 1 1 3 6 8 7 5 3 2 2 0 0 0 0 0 0 0 0 0 0 0 0 0 0 1 4 7 8 8 8 7 5
3 2 0 0 0 0 0 0 0 0 0 0 0 1 2 4 5 5 5 4 3 2 1 0 0 0 0 0 0 0 0 0 0 0 0 1 2 4 7 8 6 6 5 4
3 2 1 1 1 1 0 0 0 0 0 0 0 1 3 4 4 5 5 4 3 3 2 1 0 0 0 0 0 0 0 0 0 0 1 1 2 4 5 5 4 3 3 2
3 3 2 2 2 1 0 0 0 0 0 0 1 2 4 5 5 6 6 5 3 3 3 2 1 0 0 0 0 0 0 0 1 1 1 1 2 3 4 3 2 1 1 1

GEFSCGP_con_probscp_216.txt.gz
Probability
0 0 0 0 0 0 0 0 0 1 2 4 6 7 8 8 8 8 10 16 20 19 18 19 21 22 22 23 25 26 26 26 26 25 23 21 19 17 15 14 13 12 10 8
0 0 0 0 0 0 0 0 0 0 1 3 4 5 7 9 11 12 14 18 23 23 22 20 20 21 21 23 24 25 25 26 26 25 22 21 20 18 18 17 15 13 11 10
0 0 0 0 0 0 0 0 0 0 0 1 1 2 5 10 13 14 16 19 23 24 24 21 19 18 20 21 21 21 23 25 25 23 20 20 21 19 18 17 15 14 14 14
0 0 0 0 0 0 0 0 0 0 0 0 0 1 5 9 12 11 12 17 20 21 23 22 19 17 18 17 16 17 19 21 21 19 16 16 17 16 13 12 13 14 16 17
0 0 0 0 0 0 0 0 0 0 0 0 0 1 4 7 9 7 8 13 16 18 20 20 17 15 14 13 12 13 15 16 15 14 14 12 11 11 10 9 11 13 16 17
0 0 0 0 0 0 0 0 0 0 0 0 0 1 3 6 7 5 4 7 11 14 15 15 14 11 10 10 9 10 12 13 12 12 13 11 8 8 9 10 10 13 15 17
0 0 1 0 0 0 0 0 0 0 0 0 0 0 2 5 6 4 2 3 6 9 11 11 9 8 7 7 8 8 10 11 10 10 11 10 8 7 9 10 11 12 14 16
0 0 0 0 0 0 0 0 0 0 0 0 0 0 1 3 4 2 1 1 3 6 8 7 7 7 7 7 7 7 7 8 7 8 7 7 7 7 8 8 9 10 11 12
0 0 0 0 0 0 0 0 0 0 0 0 0 0 0 1 2 2 1 0 1 2 3 3 4 6 6 6 4 4 4 4 4 4 5 5 6 7 8 8 7 7 7 7
0 0 0 0 0 0 0 0 0 0 0 0 0 0 0 0 1 1 1 0 0 0 1 1 2 3 3 3 1 1 2 2 2 2 3 4 5 6 7 7 6 4 3 4
0 0 0 0 0 0 0 0 0 0 0 0 0 0 0 0 0 0 0 0 0 0 0 0 0 1 1 1 0 0 0 0 0 1 3 3 3 4 5 5 4 3 3 4
0 0 0 0 0 0 0 0 0 0 0 0 0 0 0 0 0 0 0 1 1 0 0 0 0 0 0 0 0 0 0 0 0 1 2 3 3 3 3 3 3 3 4 4
0 0 0 0 0 0 0 0 0 0 0 0 0 0 0 0 0 0 0 1 1 1 0 0 0 0 0 0 0 0 0 0 0 0 1 2 3 3 3 3 3 3 4 4
0 0 0 0 0 0 0 0 0 0 0 0 0 0 0 0 0 0 0 0 1 1 0 0 0 0 0 0 0 0 0 0 0 0 0 1 2 3 3 3 3 3 3 3
0 0 0 0 0 0 0 0 0 0 0 0 0 0 0 0 0 0 0 0 0 0 0 0 0 0 0 0 0 0 0 0 0 0 0 0 1 3 3 3 3 3 3 3
0 0 0 0 0 0 0 0 0 0 0 0 0 0 0 0 0 0 0 0 0 0 0 0 0 0 0 0 0 0 0 0 0 0 0 0 1 2 3 3 3 3 3 3
0 0 0 0 0 0 0 0 0 0 0 0 1 1 1 1 1 0 0 0 0 0 0 0 0 0 0 0 0 0 0 0 0 0 0 0 0 1 1 2 2 2 3 3
0 0 0 0 0 0 0 0 0 0 1 1 1 2 3 2 2 1 0 0 0 0 0 0 0 0 0 0 0 0 0 0 0 0 0 1 0 0 0 1 1 1 2 3
0 0 0 0 0 0 0 0 0 0 1 2 2 2 2 2 2 1 0 0 0 0 0 0 0 0 0 0 0 0 0 0 0 0 0 1 0 0 0 0 0 1 2 3
0 0 0 0 0 0 0 0 0 0 1 2 1 1 1 1 1 0 0 0 0 0 0 0 0 0 0 0 0 0 0 0 0 0 0 1 0 0 0 0 1 2 3 3
0 0 0 0 0 0 0 0 0 0 0 0 0 0 0 0 0 0 0 0 0 0 0 0 0 0 0 0 0 0 0 0 0 0 0 0 0 0 0 0 1 2 3 3
0 0 0 0 0 0 0 0 0 0 0 0 0 0 0 0 0 0 0 0 0 0 0 0 0 0 0 0 0 0 0 0 0 0 0 0 0 0 1 0 0 1 3 3
0 0 0 0 0 0 0 0 0 0 0 0 0 0 0 0 0 0 0 0 0 0 0 0 0 0 0 0 0 0 0 0 0 0 0 0 0 0 0 0 0 1 2 2
0 0 0 0 0 0 0 0 0 0 0 0 0 0 0 0 0 0 0 0 0 0 0 0 0 0 0 0 0 0 0 0 0 0 0 0 0 0 0 0 0 0 1 1
0 0 0 0 0 0 0 0 0 0 0 0 0 0 0 0 0 0 0 0 0 0 0 0 0 0 0 0 0 0 0 0 0 0 0 0 0 0 0 0 0 0 0 0
0 0 0 0 0 0 0 0 0 0 0 0 0 0 0 0 0 0 0 0 0 0 0 0 0 0 0 0 0 0 0 0 0 0 0 0 0 0 0 0 0 0 0 0

GEFSCGP_con_probscp_222.txt.gz
Probability
0 0 0 0 0 0 0 1 1 1 1 1 1 3 6 10 11 9 7 6 6 7 7 7 8 10 10 10 11 13 13 12 11 11 10 10 12 12 10 6 5 5 4 3
0 0 0 0 0 0 0 1 1 0 0 0 0 2 6 9 9 8 7 5 4 6 7 8 9 10 10 10 11 12 12 12 11 10 10 10 10 11 8 5 4 4 3 2
0 0 0 0 0 0 0 0 0 0 0 0 0 2 6 8 6 6 5 4 2 4 6 8 9 10 10 10 9 9 10 10 11 10 9 8 8 7 5 4 3 3 2 1
0 0 0 0 0 0 0 0 0 0 0 0 0 1 4 5 4 4 3 2 1 2 5 8 9 9 9 8 7 7 7 9 10 10 7 6 6 4 2 2 2 2 1 1
0 0 0 0 0 0 0 0 0 0 0 0 0 0 1 2 3 2 1 1 1 2 5 7 8 6 5 5 5 4 6 7 8 7 5 4 4 2 0 1 1 1 0 0
0 1 1 1 1 0 0 0 0 0 0 0 0 0 0 1 1 1 0 0 2 4 6 6 5 4 4 4 3 3 4 5 5 3 2 2 2 1 0 0 0 0 0 0
1 2 2 2 1 0 0 0 0 0 0 0 0 0 0 0 0 0 0 1 3 5 5 4 3 3 3 2 1 2 2 3 3 2 1 1 1 0 0 0 0 0 1 1
2 3 3 2 1 0 0 0 0 0 0 0 0 0 0 0 0 0 0 1 2 3 2 2 2 2 2 1 1 1 2 2 1 1 0 0 0 0 0 0 0 1 2 2
2 2 1 1 0 0 0 0 0 0 0 0 0 0 0 0 0 0 0 1 2 2 1 1 1 1 1 1 1 2 3 2 1 0 0 0 0 0 0 0 0 1 2 2
1 2 1 0 0 0 0 0 0 0 0 0 0 0 0 0 0 0 0 1 1 1 0 0 0 0 0 1 2 3 3 1 0 0 0 0 0 0 0 0 0 0 1 1
1 1 1 0 0 0 0 0 0 0 0 0 0 0 0 0 0 0 0 0 0 0 0 0 0 0 0 0 1 2 2 1 0 0 0 0 0 0 0 0 0 0 0 0
0 0 0 0 0 0 0 0 0 0 0 0 0 0 0 0 0 0 0 0 0 0 0 0 0 0 0 0 0 1 1 0 0 0 0 0 0 0 0 0 0 0 0 0
0 0 0 0 0 0 0 0 0 0 0 0 0 0 0 0 0 0 0 0 0 0 0 0 0 0 0 0 0 0 0 0 0 0 0 0 0 0 0 0 0 0 0 0
0 0 0 0 0 1 1 0 0 0 0 0 0 0 0 0 0 0 0 0 0 0 0 0 0 0 0 0 0 0 0 0 0 0 0 0 0 0 0 0 0 0 0 0
0 0 0 0 1 2 2 1 0 0 0 0 0 0 0 0 0 0 0 0 0 0 0 0 0 0 0 0 0 0 0 0 0 0 0 0 0 0 0 0 0 0 0 0
0 0 0 0 1 2 2 1 0 0 0 0 0 0 0 0 0 0 0 0 0 0 0 0 0 0 0 0 0 0 0 0 0 0 0 0 0 0 0 0 0 0 0 0
0 0 0 0 0 1 2 1 0 0 0 0 0 0 0 0 0 0 0 0 0 0 0 0 0 0 0 0 0 0 0 0 0 0 0 0 0 0 0 0 0 0 0 0
0 0 0 0 0 0 0 0 0 0 0 0 0 0 0 0 0 0 0 0 0 0 0 0 0 0 0 0 0 0 0 0 0 0 0 0 0 0 0 0 0 0 0 0
0 0 0 0 0 0 0 0 0 0 0 0 0 0 0 0 0 0 0 0 0 0 0 0 0 0 0 0 0 0 0 0 0 0 0 0 0 0 0 0 0 0 0 0
0 0 0 0 0 0 0 0 0 0 0 0 0 0 0 0 0 0 0 0 0 0 0 0 0 0 0 0 0 0 0 0 0 0 0 0 0 0 0 0 0 0 0 0
0 0 0 0 0 0 0 0 0 0 0 0 0 0 0 0 0 0 0 0 0 0 0 0 0 0 0 0 0 0 0 0 0 0 0 0 0 0 0 0 0 0 0 0
0 0 0 0 0 0 0 0 0 0 0 0 0 0 0 0 0 0 0 0 0 0 0 0 0 0 0 0 0 0 0 0 0 0 0 0 0 0 0 0 0 0 0 0
0 0 0 0 0 0 0 0 0 0 0 0 0 0 0 0 0 0 0 0 0 0 0 0 0 0 0 0 0 0 0 0 0 0 0 0 0 0 0 0 0 0 0 0
0 0 0 0 0 0 0 0 0 0 0 0 0 0 0 0 0 0 0 0 0 0 0 0 0 0 0 0 0 0 0 0 0 0 0 0 0 0 0 0 0 0 0 0
0 0 0 0 0 0 0 0 0 0 0 0 0 0 0 0 0 0 0 0 0 0 0 0 0 0 0 0 0 0 0 0 0 0 0 0 0 0 0 0 0 0 0 0
0 0 0 0 0 0 0 0 0 0 0 0 0 0 0 0 0 0 0 0 0 0 0 0 0 0 0 0 0 0 0 0 0 0 0 0 0 0 0 0 0 0 0 0

GEFSCGP_con_probscp_228.txt.gz
Probability
0 0 0 0 0 0 0 0 1 2 2 1 1 1 1 1 2 4 7 8 11 17 21 21 18 15 16 17 19 22 22 20 20 21 23 26 27 26 23 20 18 18 18 19
0 0 0 0 0 0 0 0 1 3 3 1 0 1 2 3 3 5 8 10 13 16 19 20 19 17 16 15 16 19 20 19 20 21 23 26 26 25 23 21 19 20 20 21
0 0 0 0 0 0 0 0 1 2 3 1 0 1 3 4 5 6 8 10 12 15 17 18 19 19 17 14 14 16 17 18 19 21 22 24 24 23 24 23 21 22 22 21
0 0 0 0 0 0 0 0 0 1 1 0 0 1 3 4 4 5 7 8 10 13 15 16 18 19 19 17 16 17 17 17 17 19 20 21 20 20 21 21 21 21 21 20
0 0 0 0 0 0 0 0 0 0 0 0 0 1 3 3 3 5 7 7 8 10 13 16 18 19 19 17 17 19 18 14 13 14 17 18 18 17 16 16 17 19 19 18
0 0 0 0 0 0 0 0 0 0 0 0 0 1 2 3 4 5 6 6 7 8 11 14 18 19 17 16 16 16 13 10 9 10 14 17 17 15 12 12 14 16 15 14
0 0 0 0 0 0 0 0 0 0 0 0 0 0 1 2 4 4 4 5 6 8 9 12 16 17 17 15 13 10 8 8 7 8 11 15 15 14 12 10 11 13 13 12
0 0 0 0 0 0 0 0 0 0 0 0 0 0 0 1 3 3 3 4 4 6 7 9 13 15 16 14 10 7 6 7 7 7 10 13 13 14 13 10 9 10 11 10
0 0 0 0 0 0 0 0 0 0 0 0 0 0 0 1 2 3 3 2 2 3 4 6 8 11 13 12 9 7 7 7 5 6 9 10 11 12 11 9 8 8 8 7
0 0 0 0 0 0 0 0 0 0 0 0 0 0 0 1 2 2 2 1 1 1 2 3 5 7 9 9 8 7 7 5 4 4 7 7 7 7 6 6 6 6 6 5
1 1 0 0 0 0 0 0 0 0 0 0 1 1 1 0 1 1 1 1 1 1 1 2 3 3 4 5 5 6 4 3 2 3 4 4 4 3 3 5 5 4 3 4
0 0 0 0 0 0 0 0 0 0 0 1 2 2 1 0 0 1 1 1 1 1 0 1 1 1 1 1 2 2 2 1 0 1 2 1 1 1 2 3 3 3 3 3
0 0 0 0 0 0 0 0 0 0 0 1 2 2 1 0 0 1 1 1 0 0 0 0 0 0 0 0 0 0 0 0 0 0 1 1 1 1 0 1 1 2 2 3
0 1 1 1 0 0 0 0 0 0 0 0 1 1 0 0 0 1 1 1 0 0 0 0 0 0 0 0 0 0 0 0 0 0 0 1 2 1 1 1 1 1 1 2
0 1 1 1 1 1 1 1 0 0 0 0 1 0 0 0 0 0 0 0 0 0 0 0 0 0 0 0 0 0 0 0 0 0 0 1 1 1 2 2 1 0 0 1
0 0 0 1 1 2 3 2 1 0 0 0 0 0 0 0 0 0 0 0 0 0 0 0 1 0 0 0 0 0 0 0 0 0 0 0 0 1 2 2 1 0 0 0
0 0 0 0 1 2 3 2 1 0 0 0 0 0 0 0 1 1 0 0 0 0 0 0 0 0 0 0 0 0 0 0 0 0 0 0 0 0 1 1 0 1 2 1
0 0 1 0 0 0 1 1 0 0 0 1 0 0 1 2 3 2 1 0 0 0 0 0 0 1 1 2 1 1 0 0 0 0 0 0 0 0 0 0 0 1 3 2
0 0 0 0 0 0 0 0 0 0 1 1 0 0 1 2 3 2 1 0 0 0 0 1 1 1 2 2 2 1 0 0 0 0 0 0 0 0 0 0 0 1 3 3
0 0 0 0 0 0 0 0 0 1 1 1 0 0 1 1 1 1 0 0 0 0 0 1 1 1 1 1 1 0 0 0 0 0 0 0 0 0 0 0 1 1 2 2
0 0 0 0 0 0 0 0 0 1 2 1 0 0 0 0 0 0 0 0 0 0 0 1 1 1 2 1 1 0 0 0 0 0 0 0 0 0 0 0 1 2 1 1
0 0 0 0 0 0 0 0 0 1 1 1 0 0 0 0 0 0 1 1 1 1 1 1 2 3 3 3 2 1 0 0 0 0 0 0 0 0 0 0 1 1 1 1
0 0 0 0 0 0 0 0 0 0 0 0 0 0 0 0 0 1 2 3 3 3 2 3 3 3 3 3 3 1 0 0 0 0 0 0 0 0 0 0 0 0 0 0
0 0 0 0 0 0 1 0 0 0 0 0 0 0 0 0 0 1 3 4 4 4 3 3 3 3 3 3 3 2 1 0 0 0 0 0 0 0 0 0 0 0 0 0
0 0 0 0 0 0 0 0 0 0 0 0 0 0 0 0 0 2 3 4 4 3 3 3 3 3 3 3 3 3 1 1 1 1 0 0 0 0 0 0 0 0 0 0
0 0 0 0 0 0 0 0 0 0 0 0 0 0 0 0 0 1 3 3 3 3 3 3 3 3 3 3 3 3 2 1 2 1 0 0 0 0 0 0 0 0 0 0

GEFSCGP_con_probscp_234.txt.gz
Probability
0 0 0 0 0 0 0 0 0 1 1 1 2 6 8 9 11 18 22 24 26 28 30 30 30 34 37 38 34 30 28 29 30 31 29 25 24 23 22 23 26 26 24 23
0 0 0 0 0 0 0 0 0 1 1 1 3 5 7 9 13 18 21 22 23 26 28 30 31 33 36 36 32 29 28 28 29 30 29 25 24 22 20 22 26 27 25 24
0 0 0 0 0 0 0 0 0 0 0 1 2 4 7 11 14 16 16 16 18 21 24 26 29 32 33 32 30 29 29 28 27 28 28 26 25 24 22 23 27 28 26 25
0 0 0 0 0 0 0 0 0 0 0 0 1 3 7 10 12 13 12 11 13 16 20 24 26 29 30 28 28 30 29 29 28 27 29 28 27 26 25 25 27 27 26 24
0 0 0 0 0 0 0 0 0 0 0 0 0 2 5 9 10 10 9 9 11 14 18 22 25 26 25 25 27 29 29 29 29 28 28 27 25 24 24 24 23 24 23 21
0 0 0 0 0 0 0 0 0 0 0 0 0 1 5 8 9 8 8 8 9 12 15 18 20 21 21 21 24 26 26 27 28 27 26 25 22 20 21 19 18 18 17 15
0 0 0 0 0 0 0 0 0 0 0 0 0 2 6 8 7 7 7 7 8 10 12 14 15 18 18 18 20 21 21 23 25 26 25 21 17 15 15 14 14 13 11 9
0 0 0 0 0 0 0 0 0 0 0 0 1 3 5 7 7 7 6 5 5 7 10 11 12 15 17 18 18 18 17 18 20 22 21 17 12 11 11 11 11 10 8 8
0 0 0 0 0 0 0 0 0 0 0 0 1 2 3 5 5 4 4 2 2 4 7 9 11 13 15 16 16 15 14 13 14 15 14 12 9 8 8 9 9 8 8 7
0 0 0 0 0 0 0 0 0 0 0 0 1 1 1 2 2 2 2 1 1 3 6 9 10 11 11 11 12 13 12 10 9 9 8 8 8 7 7 7 8 7 7 7
0 0 0 0 0 0 0 0 0 0 0 0 0 0 0 0 1 1 2 1 1 2 6 8 8 8 8 6 6 9 10 8 7 7 6 6 7 7 7 7 7 7 6 6
0 0 0 0 0 0 0 0 0 0 0 1 1 1 1 1 1 1 1 0 1 3 5 6 5 5 5 3 3 5 6 6 5 4 4 5 6 7 8 7 6 6 6 6
0 0 0 0 0 0 0 0 0 0 0 1 2 1 1 1 1 0 0 0 2 4 5 4 3 3 4 2 2 3 4 3 2 2 3 4 5 6 7 6 5 6 5 4
0 0 0 0 0 0 0 0 0 0 0 1 1 0 0 0 0 0 0 0 1 3 4 3 2 4 5 4 3 3 3 2 1 1 1 2 4 5 5 4 3 4 5 4
1 1 0 0 0 1 1 2 1 1 1 1 0 0 0 0 0 0 0 0 0 2 3 2 2 6 7 6 5 4 2 1 1 1 1 2 4 4 3 1 1 3 4 4
3 3 2 0 0 2 3 4 3 2 1 0 0 0 0 0 0 1 1 1 0 0 1 2 4 8 11 10 8 6 3 2 3 3 3 3 4 4 2 1 1 2 3 3
5 5 3 1 1 1 3 3 2 2 1 0 0 0 0 1 1 2 2 1 1 0 1 3 6 10 13 12 11 8 4 3 4 4 3 3 3 3 2 1 1 3 4 4
6 6 4 3 1 1 1 1 0 1 1 0 0 0 1 2 4 4 3 3 3 2 4 6 8 10 12 11 10 7 5 4 4 3 1 1 1 2 2 2 3 6 7 7
6 6 4 2 1 1 0 0 0 0 1 0 0 1 3 4 6 6 6 6 6 6 6 6 7 8 9 9 8 6 4 3 1 1 0 0 0 1 3 3 5 7 8 8
4 4 2 1 1 1 0 0 0 0 1 1 2 3 5 7 7 6 7 8 9 9 7 5 5 5 6 7 7 5 2 1 1 0 0 0 0 0 1 3 4 5 6 5
1 1 1 0 0 0 0 0 0 0 1 2 3 4 5 6 5 4 4 7 8 8 5 3 3 4 4 5 5 3 1 1 1 1 0 0 0 0 0 1 2 4 4 4
0 0 1 1 1 0 0 0 0 1 2 3 2 2 3 3 2 2 2 4 6 5 4 3 3 3 3 4 3 3 2 2 3 2 2 1 1 0 0 1 2 3 3 3
0 0 1 2 1 1 1 0 0 1 2 1 1 0 1 1 1 1 2 4 4 4 4 4 3 3 4 4 3 3 3 4 4 4 3 3 1 0 0 1 2 2 3 3
0 0 2 2 2 2 2 0 0 1 1 0 0 0 0 1 0 1 2 4 4 3 3 4 3 4 5 5 4 3 4 5 6 5 5 4 1 0 0 1 1 1 2 2
0 0 1 2 2 2 1 1 0 0 0 0 0 0 0 0 0 0 1 3 3 3 3 3 3 3 4 5 5 4 4 6 6 6 5 3 1 0 0 0 1 1 1 1
0 0 1 2 2 1 1 2 1 0 0 0 0 0 0 0 0 0 1 2 3 3 3 3 3 3 4 5 5 5 5 6 6 6 5 3 1 0 0 0 1 1 1 0

GEFSCGP_con_probscp_240.txt.gz
Probability
0 0 0 0 0 0 0 0 0 0 0 0 0 1 4 7 9 9 12 15 16 17 19 19 18 18 19 17 13 11 13 18 21 21 21 19 16 14 13 11 9 8 7 6
0 0 0 0 0 0 0 0 0 0 0 0 0 1 4 7 10 11 13 15 17 19 20 20 20 19 18 18 16 15 17 19 20 20 19 17 15 14 13 12 10 8 7 6
0 0 0 0 0 0 0 0 0 0 0 0 1 2 3 7 11 13 14 15 17 19 20 20 19 17 16 17 17 17 18 20 19 17 17 15 14 13 13 12 12 11 9 8
0 0 0 0 0 0 0 0 0 0 0 0 1 2 3 5 8 11 12 13 15 16 17 17 15 13 12 13 14 15 15 17 17 16 15 15 13 12 11 12 12 11 10 9
0 0 0 0 0 0 0 0 0 0 0 0 0 1 2 3 5 6 7 8 10 10 10 11 11 9 10 11 11 11 11 13 14 13 13 13 12 10 9 10 10 8 7 7
0 0 0 0 0 0 0 0 0 0 0 0 0 0 1 3 3 3 3 5 6 6 5 6 7 7 9 10 9 8 9 10 10 10 10 10 10 8 7 7 7 5 4 4
0 0 0 0 0 0 0 0 0 0 0 0 0 0 1 2 2 1 2 4 6 5 4 4 6 7 7 7 7 7 8 9 8 8 7 8 6 4 3 4 4 3 3 2
0 0 0 0 0 0 0 0 0 0 0 0 0 0 0 1 1 0 1 4 6 5 4 4 5 6 5 4 4 5 6 7 7 6 6 5 3 1 1 2 3 2 1 1
0 0 0 0 0 0 0 0 0 0 0 0 0 0 0 0 0 0 1 3 4 4 4 5 5 4 3 3 3 4 5 5 5 5 4 3 1 0 0 1 2 1 0 0
0 0 0 0 0 0 0 0 0 0 0 0 0 0 0 0 0 0 1 2 3 4 5 6 5 3 3 3 3 3 2 3 3 3 2 1 0 0 0 1 1 0 0 0
0 0 0 0 0 0 0 0 0 0 0 0 0 0 0 0 0 0 1 2 3 4 6 6 5 3 3 3 3 3 1 1 1 1 1 0 0 0 0 0 0 0 0 0
0 0 0 0 0 0 0 0 0 0 0 0 0 0 0 0 0 0 1 2 3 4 5 5 4 3 3 3 3 3 2 0 0 0 0 0 0 0 0 0 0 0 0 0
0 0 0 0 0 0 0 0 0 0 0 0 0 0 0 0 0 0 1 2 3 3 4 4 3 3 3 3 3 3 1 0 0 0 0 0 0 0 0 0 0 0 0 0
0 0 0 0 1 1 1 1 1 0 0 0 0 0 0 0 0 0 0 1 3 3 3 3 3 2 2 2 2 2 1 0 0 0 0 0 0 0 0 0 0 0 0 0
0 0 0 1 3 4 4 3 2 1 0 0 0 0 0 0 0 0 0 1 2 3 3 2 1 1 1 1 1 1 0 0 0 0 0 0 0 0 0 0 0 0 0 0
0 0 0 1 3 4 5 4 2 1 0 0 0 0 0 0 0 0 0 1 2 3 2 1 0 0 0 0 0 0 0 0 0 0 0 0 0 0 0 0 0 0 0 0
0 0 0 1 1 1 2 1 1 0 0 0 0 0 0 0 0 0 0 1 2 2 1 0 0 0 0 0 0 0 0 0 0 0 0 0 0 0 0 0 0 0 0 0
0 0 0 0 0 0 0 0 0 0 0 0 0 0 0 0 0 0 1 1 2 3 2 1 0 0 0 0 0 0 0 0 0 0 0 0 0 0 0 0 0 0 0 0
0 0 0 0 0 0 0 0 0 0 0 0 0 0 0 0 0 1 2 3 3 3 2 1 0 0 0 0 0 0 0 0 0 0 0 0 0 0 0 0 0 0 0 0
0 0 0 0 0 0 0 0 0 0 0 0 0 0 0 0 0 1 2 2 2 2 1 0 0 0 0 0 0 0 0 0 0 0 0 0 0 0 0 0 0 0 0 0
0 0 0 0 0 0 0 0 0 0 0 0 0 0 0 0 0 1 1 1 1 1 0 0 0 0 0 0 0 0 0 0 0 0 0 0 0 0 0 0 0 0 0 0
0 0 0 0 0 0 0 0 0 0 0 0 0 0 0 1 1 2 2 1 0 1 1 0 0 0 0 0 0 0 0 0 0 0 0 0 0 0 0 0 0 0 0 0
0 0 0 0 0 0 0 0 0 0 0 0 0 0 0 1 2 3 2 1 0 1 1 1 1 1 1 0 0 0 0 1 1 0 0 0 0 0 0 0 0 0 0 0
0 0 0 0 0 0 0 0 0 0 0 0 0 0 0 1 2 2 1 0 0 1 1 1 2 2 1 0 0 0 0 1 1 0 0 0 0 0 0 0 0 0 0 0
0 0 0 0 0 0 0 0 0 0 0 0 0 1 1 2 1 1 0 0 0 0 0 1 1 2 1 0 0 0 1 1 1 1 0 0 0 0 0 0 0 0 0 0
0 0 0 0 0 0 0 0 0 0 0 0 1 2 2 2 1 0 0 0 0 0 0 0 0 1 0 0 0 1 2 2 2 2 1 0 0 0 0 0 0 0 0 0

GEFSCGP_con_probscp_246.txt.gz
Probability
0 0 0 0 0 0 0 0 0 0 0 0 0 1 1 4 8 9 9 12 11 10 8 8 9 8 8 8 8 9 8 5 3 4 4 3 3 2 1 0 1 0 0 0
0 0 0 0 0 0 0 0 0 0 0 0 0 0 1 4 7 8 9 11 11 11 10 10 10 10 10 9 9 9 9 6 5 5 5 3 2 2 1 1 2 1 1 0
0 0 0 0 0 0 0 0 0 0 0 0 0 0 1 4 7 7 7 8 9 10 11 11 10 10 11 11 9 9 9 8 7 6 5 4 3 2 3 3 3 2 2 1
0 0 0 0 0 0 0 0 0 0 0 0 0 0 1 4 7 6 5 5 6 7 8 8 8 8 9 9 9 9 9 9 7 6 5 5 5 4 4 3 2 1 2 2
0 0 0 0 0 0 0 0 0 0 0 0 0 0 1 3 5 5 4 3 4 4 5 5 4 5 6 6 7 7 8 8 7 6 5 5 6 5 3 1 0 0 1 1
0 0 0 0 0 0 0 0 0 0 0 0 0 0 1 2 3 2 2 2 2 2 3 3 3 4 4 4 5 6 7 7 6 5 5 5 4 2 1 0 0 0 0 0
0 0 0 0 0 0 0 0 0 0 0 0 0 0 0 1 1 1 1 1 1 1 1 2 3 3 3 3 4 5 6 6 5 4 3 3 2 1 0 0 0 0 0 0
0 0 0 0 0 0 0 0 0 0 0 0 0 0 0 0 1 1 1 0 0 0 0 1 1 3 3 3 3 4 5 6 5 2 1 1 2 1 0 0 0 0 0 0
0 0 0 0 0 0 0 0 0 0 0 0 0 0 0 0 1 1 1 0 0 0 0 0 1 3 3 3 3 3 4 5 3 1 0 1 1 1 0 0 0 0 0 0
0 0 0 0 0 0 0 0 0 0 0 0 0 0 0 0 0 0 0 0 0 0 0 1 2 3 3 3 3 3 3 3 2 1 0 0 0 0 0 0 0 0 0 0
0 0 0 0 0 0 0 0 0 0 0 0 0 0 0 0 0 0 0 0 0 0 0 1 2 3 3 3 3 3 3 2 1 0 0 0 0 0 0 0 0 0 0 0
0 0 0 0 0 0 0 0 0 0 0 0 0 0 0 0 0 0 0 0 0 0 0 1 3 3 3 3 3 3 2 1 0 0 0 0 0 0 0 0 0 0 0 0
0 0 0 0 0 0 0 0 0 0 0 0 0 0 0 0 0 0 0 0 0 0 1 2 3 3 3 3 3 2 1 0 0 0 0 0 0 0 0 0 0 0 0 0
0 0 0 0 0 0 0 0 0 0 0 0 0 0 0 0 0 0 0 0 0 0 1 2 2 3 3 3 2 1 0 0 0 0 0 0 0 0 0 0 0 0 0 0
0 0 0 0 0 0 0 1 0 0 0 0 0 0 0 0 0 0 0 0 0 0 1 1 1 1 2 2 1 0 0 0 0 0 0 0 0 0 0 0 0 0 0 0
0 0 0 0 0 0 0 1 0 0 0 0 0 0 0 0 0 0 0 0 0 0 0 0 0 0 1 1 0 0 0 0 0 0 0 0 0 0 0 0 0 0 0 0
0 0 0 0 0 0 0 1 0 0 0 0 0 0 0 0 0 0 0 0 0 0 0 0 0 0 0 0 0 0 0 0 0 0 0 0 0 0 0 0 0 0 0 0
0 0 0 0 0 0 0 0 0 0 0 0 0 0 0 0 0 0 0 0 0 0 0 0 0 0 0 0 0 0 0 0 0 0 0 0 0 0 0 0 0 0 0 0
0 0 0 0 0 0 0 0 0 0 0 0 0 0 0 0 0 0 0 0 0 0 0 0 0 0 0 0 0 0 0 0 0 0 0 0 0 0 0 0 0 0 0 0
0 0 0 0 0 0 0 0 0 0 0 0 0 0 0 0 0 0 0 0 0 0 0 0 0 0 0 0 0 0 0 0 0 0 0 0 0 0 0 0 0 0 0 0
0 0 0 0 0 0 0 0 0 0 0 0 0 0 0 0 0 0 0 0 0 0 0 0 0 0 0 0 0 0 0 0 0 0 0 0 0 0 0 0 0 0 0 0
0 0 0 0 0 0 0 0 0 0 0 0 0 0 0 0 0 0 0 0 0 0 0 0 0 0 0 0 0 0 0 0 0 0 0 0 0 0 0 0 0 0 0 0
0 0 0 0 0 0 0 0 0 0 0 0 0 0 0 0 0 0 0 0 0 0 0 0 0 0 0 0 0 0 0 0 0 0 0 0 0 0 0 0 0 0 0 0
0 0 0 0 0 0 0 0 0 0 0 0 0 0 0 0 0 0 0 0 0 0 0 0 0 0 0 0 0 0 0 0 0 0 0 0 0 0 0 0 0 0 0 0
0 0 0 0 0 0 0 0 0 0 0 0 1 1 0 0 0 0 0 0 0 0 0 0 0 0 0 0 0 0 0 0 0 0 0 0 0 0 0 0 0 0 0 0
0 0 0 0 0 0 0 0 0 0 0 1 2 2 1 0 0 0 0 0 0 0 0 0 0 0 0 0 0 0 0 0 0 0 0 0 0 0 0 0 0 0 0 0